| time (UTC) | temp F | wind direction | speed MPH | gust MPH | rain 1hr in | rain 24hr in | rain mn in | humidity % | barometer mb |
| 20260509202958 | 76 | 256 | 4.0 | 7.0 | 0.00 | 0.00 | 0.00 | 48 | 1001.0 |
| 20260509202459 | 76 | 247 | 2.0 | 7.0 | 0.00 | 0.00 | 0.00 | 45 | 1001.0 |
| 20260509201958 | 76 | 248 | 0.0 | 4.0 | 0.00 | 0.00 | 0.00 | 47 | 1001.0 |
| 20260509201459 | 77 | 211 | 4.0 | 5.0 | 0.00 | 0.00 | 0.00 | 44 | 1001.1 |
| 20260509200958 | 77 | 215 | 4.0 | 5.0 | 0.00 | 0.00 | 0.00 | 44 | 1001.1 |
| 20260509200458 | 77 | 261 | 0.0 | 4.0 | 0.00 | 0.00 | 0.00 | 43 | 1001.1 |
| 20260509195958 | 76 | 244 | 1.0 | 4.0 | 0.00 | 0.00 | 0.00 | 43 | 1001.2 |
| 20260509195458 | 77 | 288 | 0.0 | 3.0 | 0.00 | 0.00 | 0.00 | 42 | 1001.3 |
| 20260509194958 | 77 | 288 | 1.0 | 3.0 | 0.00 | 0.00 | 0.00 | 42 | 1001.3 |
| 20260509194458 | 76 | 232 | 0.0 | 4.0 | 0.00 | 0.00 | 0.00 | 38 | 1001.4 |
| 20260509193501 | 76 | 232 | 2.0 | 4.0 | 0.00 | 0.00 | 0.00 | 36 | 1001.6 |
| 20260509193001 | 77 | 202 | 3.0 | 3.0 | 0.00 | 0.00 | 0.00 | 36 | 1001.6 |
| 20260509192458 | 77 | 202 | 0.0 | 2.0 | 0.00 | 0.00 | 0.00 | 34 | 1001.7 |
| 20260509191958 | 76 | 202 | 2.0 | 2.0 | 0.00 | 0.00 | 0.00 | 38 | 1001.8 |
| 20260509191501 | 75 | 202 | 0.0 | 2.0 | 0.00 | 0.00 | 0.00 | 36 | 1001.9 |
| 20260509190958 | 75 | 202 | 0.0 | 2.0 | 0.00 | 0.00 | 0.00 | 34 | 1002.0 |
| 20260509190509 | 74 | 202 | 0.0 | 3.0 | 0.00 | 0.00 | 0.00 | 36 | 1002.1 |
| 20260509190002 | 73 | 202 | 0.0 | 3.0 | 0.00 | 0.00 | 0.00 | 36 | 1002.2 |
| 20260509185000 | 73 | 202 | 0.0 | 1.0 | 0.00 | 0.00 | 0.00 | 45 | 1002.3 |
| 20260509184000 | 71 | 202 | 2.0 | 3.0 | 0.00 | 0.00 | 0.00 | 39 | 1002.5 |
| 20260509183459 | 70 | 198 | 0.0 | 3.0 | 0.00 | 0.00 | 0.00 | 47 | 1002.6 |
| 20260509182958 | 70 | 198 | 0.0 | 2.0 | 0.00 | 0.00 | 0.00 | 47 | 1002.6 |
| 20260509182458 | 69 | 198 | 0.0 | 1.0 | 0.00 | 0.00 | 0.00 | 44 | 1002.6 |
| 20260509181500 | 68 | 198 | 0.0 | 2.0 | 0.00 | 0.00 | 0.00 | 44 | 1002.9 |
| 20260509180958 | 68 | 198 | 0.0 | 3.0 | 0.00 | 0.00 | 0.00 | 44 | 1003.0 |
| 20260509180458 | 68 | 198 | 0.0 | 3.0 | 0.00 | 0.00 | 0.00 | 47 | 1003.0 |
| 20260509175000 | 66 | 198 | 0.0 | 3.0 | 0.00 | 0.00 | 0.00 | 50 | 1003.3 |
| 20260509174007 | 66 | 197 | 0.0 | 2.0 | 0.00 | 0.00 | 0.00 | 49 | 1003.4 |
| 20260509173009 | 65 | 197 | 0.0 | 1.0 | 0.00 | 0.00 | 0.00 | 50 | 1003.5 |
| 20260509172503 | 64 | 197 | 0.0 | 2.0 | 0.00 | 0.00 | 0.00 | 51 | 1003.5 |
| 20260509171959 | 63 | 197 | 0.0 | 2.0 | 0.00 | 0.00 | 0.00 | 56 | 1003.6 |
| 20260509171500 | 63 | 197 | 0.0 | 2.0 | 0.00 | 0.00 | 0.00 | 61 | 1003.8 |
| 20260509170501 | 62 | 196 | 1.0 | 4.0 | 0.00 | 0.00 | 0.00 | 63 | 1003.8 |
| 20260509165501 | 61 | 133 | 0.0 | 2.0 | 0.00 | 0.00 | 0.00 | 67 | 1003.9 |
| 20260509165010 | 60 | 133 | 0.0 | 2.0 | 0.00 | 0.00 | 0.00 | 65 | 1003.9 |
| 20260509164004 | 60 | 133 | 1.0 | 2.0 | 0.00 | 0.00 | 0.00 | 70 | 1004.0 |
| 20260509163501 | 59 | 246 | 0.0 | 0.0 | 0.00 | 0.00 | 0.00 | 72 | 1004.1 |
| 20260509162958 | 58 | 246 | 0.0 | 0.0 | 0.00 | 0.00 | 0.00 | 73 | 1004.2 |
| 20260509162001 | 54 | 246 | 0.0 | 0.0 | 0.00 | 0.00 | 0.00 | 73 | 1004.3 |
| 20260509161504 | 49 | 246 | 0.0 | 0.0 | 0.00 | 0.00 | 0.00 | 58 | 1004.3 |
| 20260509160959 | 47 | 246 | 0.0 | 0.0 | 0.00 | 0.00 | 0.00 | 59 | 1004.3 |
| 20260509160501 | 44 | 246 | 0.0 | 0.0 | 0.00 | 0.00 | 0.00 | 60 | 1004.5 |
| 20260509160001 | 44 | 246 | 0.0 | 0.0 | 0.00 | 0.00 | 0.00 | 61 | 1004.6 |
| 20260509155459 | 43 | 246 | 0.0 | 0.0 | 0.00 | 0.00 | 0.00 | 62 | 1004.8 |
| 20260509154958 | 43 | 246 | 0.0 | 0.0 | 0.00 | 0.00 | 0.00 | 62 | 1005.0 |
| 20260509153959 | 42 | 246 | 0.0 | 0.0 | 0.00 | 0.00 | 0.00 | 64 | 1005.0 |
| 20260509153459 | 41 | 246 | 0.0 | 0.0 | 0.00 | 0.00 | 0.00 | 64 | 1005.1 |
| 20260509152958 | 41 | 246 | 0.0 | 0.0 | 0.00 | 0.00 | 0.00 | 65 | 1005.2 |
| 20260509152458 | 41 | 246 | 0.0 | 0.0 | 0.00 | 0.00 | 0.00 | 65 | 1005.2 |
| 20260509151959 | 40 | 246 | 0.0 | 0.0 | 0.00 | 0.00 | 0.00 | 66 | 1005.2 |
| 20260509151500 | 40 | 246 | 0.0 | 0.0 | 0.00 | 0.00 | 0.00 | 66 | 1005.2 |
| 20260509150959 | 40 | 246 | 0.0 | 0.0 | 0.00 | 0.00 | 0.00 | 67 | 1005.2 |
| 20260509150459 | 40 | 246 | 0.0 | 0.0 | 0.00 | 0.00 | 0.00 | 67 | 1005.2 |
| 20260509144959 | 39 | 246 | 0.0 | 0.0 | 0.00 | 0.00 | 0.00 | 69 | 1005.3 |
| 20260509144457 | 39 | 246 | 0.0 | 0.0 | 0.00 | 0.00 | 0.00 | 70 | 1005.2 |
| 20260509143957 | 39 | 246 | 0.0 | 0.0 | 0.00 | 0.00 | 0.00 | 70 | 1005.2 |
| 20260509143459 | 39 | 246 | 0.0 | 0.0 | 0.00 | 0.00 | 0.00 | 70 | 1005.2 |
| 20260509142958 | 39 | 246 | 0.0 | 0.0 | 0.00 | 0.00 | 0.00 | 71 | 1005.3 |
| 20260509142458 | 39 | 246 | 0.0 | 0.0 | 0.00 | 0.00 | 0.00 | 71 | 1005.5 |
| 20260509141959 | 39 | 246 | 0.0 | 0.0 | 0.00 | 0.00 | 0.00 | 71 | 1005.5 |
| 20260509141458 | 39 | 246 | 0.0 | 0.0 | 0.00 | 0.00 | 0.00 | 71 | 1005.5 |
| 20260509140958 | 39 | 246 | 0.0 | 0.0 | 0.00 | 0.00 | 0.00 | 71 | 1005.4 |
| 20260509140458 | 39 | 246 | 0.0 | 0.0 | 0.00 | 0.00 | 0.00 | 72 | 1005.3 |
| 20260509135959 | 39 | 246 | 0.0 | 0.0 | 0.00 | 0.00 | 0.00 | 72 | 1005.3 |
| 20260509135459 | 0 | 0.0 | 0.0 | 0.00 | 0.00 | 0.00 | 1005.3 | ||
| 20260509134959 | 0 | 0.0 | 0.0 | 0.00 | 0.00 | 0.00 | 1005.4 | ||
| 20260509134459 | 0 | 0.0 | 0.0 | 0.00 | 0.00 | 0.00 | 1005.4 | ||
| 20260509134000 | 0 | 0.0 | 0.0 | 0.00 | 0.00 | 0.00 | 1005.4 | ||
| 20260509133459 | 0 | 0.0 | 0.0 | 0.00 | 0.00 | 0.00 | 1005.3 | ||
| 20260509133010 | 0 | 0.0 | 0.0 | 0.00 | 0.00 | 0.00 | 1005.2 | ||
| 20260509132458 | 0 | 0.0 | 0.0 | 0.00 | 0.00 | 0.00 | 1005.4 | ||
| 20260509131959 | 0 | 0.0 | 0.0 | 0.00 | 0.00 | 0.00 | 1005.3 | ||
| 20260509131459 | 0 | 0.0 | 0.0 | 0.00 | 0.00 | 0.00 | 1005.4 | ||
| 20260509130959 | 0 | 0.0 | 0.0 | 0.00 | 0.00 | 0.00 | 1005.5 | ||
| 20260509130502 | 0 | 0.0 | 0.0 | 0.00 | 0.00 | 0.00 | 1005.6 | ||
| 20260509130000 | 0 | 0.0 | 0.0 | 0.00 | 0.00 | 0.00 | 1005.6 | ||
| 20260509124958 | 0 | 0.0 | 0.0 | 0.00 | 0.00 | 0.00 | 1005.6 | ||
| 20260509124457 | 0 | 0.0 | 0.0 | 0.00 | 0.00 | 0.00 | 1005.6 | ||
| 20260509123959 | 0 | 0.0 | 0.0 | 0.00 | 0.00 | 0.00 | 1005.4 | ||
| 20260509123457 | 0 | 0.0 | 0.0 | 0.00 | 0.00 | 0.00 | 1005.3 | ||
| 20260509122958 | 0 | 0.0 | 0.0 | 0.00 | 0.00 | 0.00 | 1005.4 | ||
| 20260509122458 | 0 | 0.0 | 0.0 | 0.00 | 0.00 | 0.00 | 1005.3 | ||
| 20260509121958 | 0 | 0.0 | 0.0 | 0.00 | 0.00 | 0.00 | 1005.3 | ||
| 20260509121501 | 0 | 0.0 | 0.0 | 0.00 | 0.00 | 0.00 | 1005.3 | ||
| 20260509120958 | 0 | 0.0 | 0.0 | 0.00 | 0.00 | 0.00 | 1005.4 | ||
| 20260509120458 | 0 | 0.0 | 0.0 | 0.00 | 0.00 | 0.00 | 1005.4 | ||
| 20260509120002 | 0 | 0.0 | 0.0 | 0.00 | 0.00 | 0.00 | 1005.5 | ||
| 20260509115457 | 0 | 0.0 | 0.0 | 0.00 | 0.00 | 0.00 | 1005.5 | ||
| 20260509114957 | 0 | 0.0 | 0.0 | 0.00 | 0.00 | 0.00 | 1005.5 | ||
| 20260509114457 | 0 | 0.0 | 0.0 | 0.00 | 0.00 | 0.00 | 1005.6 | ||
| 20260509113958 | 0 | 0.0 | 0.0 | 0.00 | 0.00 | 0.00 | 1005.6 | ||
| 20260509113501 | 0 | 0.0 | 0.0 | 0.00 | 0.00 | 0.00 | 1005.6 | ||
| 20260509112958 | 0 | 0.0 | 0.0 | 0.00 | 0.00 | 0.00 | 1005.7 | ||
| 20260509112459 | 0 | 0.0 | 0.0 | 0.00 | 0.00 | 0.00 | 1005.8 | ||
| 20260509111958 | 0 | 0.0 | 0.0 | 0.00 | 0.00 | 0.00 | 1005.8 | ||
| 20260509111458 | 0 | 0.0 | 0.0 | 0.00 | 0.00 | 0.00 | 1005.7 | ||
| 20260509110958 | 0 | 0.0 | 0.0 | 0.00 | 0.00 | 0.00 | 1005.7 | ||
| 20260509110458 | 0 | 0.0 | 0.0 | 0.00 | 0.00 | 0.00 | 1005.8 | ||
| 20260509105458 | 0 | 0.0 | 0.0 | 0.00 | 0.00 | 0.00 | 1005.9 | ||
| 20260509105000 | 0 | 0.0 | 0.0 | 0.00 | 0.00 | 0.00 | 1005.9 | ||
| 20260509104458 | 0 | 0.0 | 0.0 | 0.00 | 0.00 | 0.00 | 1005.9 | ||
| 20260509103958 | 0 | 0.0 | 0.0 | 0.00 | 0.00 | 0.00 | 1005.9 | ||
| 20260509103459 | 0 | 0.0 | 0.0 | 0.00 | 0.00 | 0.00 | 1005.9 | ||
| 20260509102959 | 0 | 0.0 | 0.0 | 0.00 | 0.00 | 0.00 | 1005.9 | ||
| 20260509102458 | 0 | 0.0 | 0.0 | 0.00 | 0.00 | 0.00 | 1005.9 | ||
| 20260509101959 | 0 | 0.0 | 0.0 | 0.00 | 0.00 | 0.00 | 1005.9 | ||
| 20260509101458 | 0 | 0.0 | 0.0 | 0.00 | 0.00 | 0.00 | 1005.9 | ||
| 20260509100958 | 0 | 0.0 | 0.0 | 0.00 | 0.00 | 0.00 | 1005.9 | ||
| 20260509100507 | 0 | 0.0 | 0.0 | 0.00 | 0.00 | 0.00 | 1006.0 | ||
| 20260509100000 | 0 | 0.0 | 0.0 | 0.00 | 0.00 | 0.00 | 1006.0 | ||
| 20260509094458 | 0 | 0.0 | 0.0 | 0.00 | 0.00 | 0.00 | 1006.0 | ||
| 20260509093957 | 0 | 0.0 | 0.0 | 0.00 | 0.00 | 0.00 | 1006.0 | ||
| 20260509093458 | 0 | 0.0 | 0.0 | 0.00 | 0.00 | 0.00 | 1006.1 | ||
| 20260509092958 | 0 | 0.0 | 0.0 | 0.00 | 0.00 | 0.00 | 1006.1 | ||
| 20260509092458 | 0 | 0.0 | 0.0 | 0.00 | 0.00 | 0.00 | 1006.0 | ||
| 20260509091957 | 0 | 0.0 | 0.0 | 0.00 | 0.00 | 0.00 | 1006.1 | ||
| 20260509091458 | 0 | 0.0 | 0.0 | 0.00 | 0.00 | 0.00 | 1006.1 | ||
| 20260509090958 | 0 | 0.0 | 0.0 | 0.00 | 0.00 | 0.00 | 1006.2 | ||
| 20260509090457 | 0 | 0.0 | 0.0 | 0.00 | 0.00 | 0.00 | 1006.3 | ||
| 20260509085958 | 0 | 0.0 | 0.0 | 0.00 | 0.00 | 0.00 | 1006.4 | ||
| 20260509085500 | 0 | 0.0 | 0.0 | 0.00 | 0.00 | 0.00 | 1006.4 | ||
| 20260509084958 | 0 | 0.0 | 0.0 | 0.00 | 0.00 | 0.00 | 1006.5 | ||
| 20260509084459 | 0 | 0.0 | 0.0 | 0.00 | 0.00 | 0.00 | 1006.6 | ||
| 20260509083959 | 0 | 0.0 | 0.0 | 0.00 | 0.00 | 0.00 | 1006.6 | ||
| 20260509082958 | 0 | 0.0 | 0.0 | 0.00 | 0.00 | 0.00 | 1006.7 | ||
| 20260509082459 | 0 | 0.0 | 0.0 | 0.00 | 0.00 | 0.00 | 1006.8 | ||
| 20260509081958 | 0 | 0.0 | 0.0 | 0.00 | 0.00 | 0.00 | 1006.8 | ||
| 20260509081501 | 0 | 0.0 | 0.0 | 0.00 | 0.00 | 0.00 | 1006.7 | ||
| 20260509080958 | 0 | 0.0 | 0.0 | 0.00 | 0.00 | 0.00 | 1006.7 | ||
| 20260509080459 | 0 | 0.0 | 0.0 | 0.00 | 0.00 | 0.00 | 1006.7 | ||
| 20260509075958 | 0 | 0.0 | 0.0 | 0.00 | 0.00 | 0.00 | 1006.8 | ||
| 20260509075457 | 0 | 0.0 | 0.0 | 0.00 | 0.00 | 0.00 | 1006.8 | ||
| 20260509074957 | 0 | 0.0 | 0.0 | 0.00 | 0.00 | 0.00 | 1006.7 | ||
| 20260509074458 | 0 | 0.0 | 0.0 | 0.00 | 0.00 | 0.00 | 1006.8 | ||
| 20260509072958 | 0 | 0.0 | 0.0 | 0.00 | 0.00 | 0.00 | 1006.8 | ||
| 20260509072458 | 0 | 0.0 | 0.0 | 0.00 | 0.00 | 0.00 | 1006.9 | ||
| 20260509071958 | 0 | 0.0 | 0.0 | 0.00 | 0.00 | 0.00 | 1006.8 | ||
| 20260509070957 | 49 | 246 | 0.0 | 0.0 | 0.00 | 0.00 | 0.00 | 78 | 1006.8 |
| 20260509070459 | 49 | 246 | 0.0 | 0.0 | 0.00 | 0.00 | 0.00 | 78 | 1006.7 |
| 20260509065958 | 49 | 246 | 0.0 | 0.0 | 0.00 | 0.00 | 0.00 | 78 | 1006.7 |
| 20260509065459 | 50 | 246 | 0.0 | 0.0 | 0.00 | 0.00 | 0.00 | 78 | 1006.6 |
| 20260509064959 | 50 | 246 | 0.0 | 0.0 | 0.00 | 0.00 | 0.00 | 78 | 1006.6 |
| 20260509064458 | 50 | 246 | 0.0 | 0.0 | 0.00 | 0.00 | 0.00 | 78 | 1006.6 |
| 20260509063959 | 50 | 246 | 0.0 | 0.0 | 0.00 | 0.00 | 0.00 | 78 | 1006.4 |
| 20260509063459 | 51 | 246 | 0.0 | 0.0 | 0.00 | 0.00 | 0.00 | 78 | 1006.5 |
| 20260509062958 | 51 | 246 | 0.0 | 0.0 | 0.00 | 0.00 | 0.00 | 78 | 1006.5 |
| 20260509062500 | 51 | 246 | 0.0 | 0.0 | 0.00 | 0.00 | 0.00 | 78 | 1006.6 |
| 20260509062004 | 51 | 246 | 0.0 | 0.0 | 0.00 | 0.00 | 0.00 | 77 | 1006.6 |
| 20260509061459 | 51 | 246 | 0.0 | 0.0 | 0.00 | 0.00 | 0.00 | 77 | 1006.6 |
| 20260509060959 | 52 | 246 | 0.0 | 0.0 | 0.00 | 0.00 | 0.00 | 77 | 1006.6 |
| 20260509060459 | 52 | 246 | 0.0 | 0.0 | 0.00 | 0.00 | 0.00 | 77 | 1006.5 |
| 20260509060000 | 52 | 246 | 0.0 | 0.0 | 0.00 | 0.00 | 0.00 | 77 | 1006.6 |
| 20260509055500 | 52 | 246 | 0.0 | 0.0 | 0.00 | 0.00 | 0.00 | 77 | 1006.5 |
| 20260509054959 | 52 | 246 | 0.0 | 0.0 | 0.00 | 0.00 | 0.00 | 77 | 1006.6 |
| 20260509053959 | 52 | 246 | 0.0 | 0.0 | 0.00 | 0.00 | 0.00 | 77 | 1006.6 |
| 20260509053459 | 52 | 246 | 0.0 | 0.0 | 0.00 | 0.00 | 0.00 | 77 | 1006.6 |
| 20260509052959 | 52 | 246 | 0.0 | 0.0 | 0.00 | 0.00 | 0.00 | 77 | 1006.6 |
| 20260509052458 | 52 | 246 | 0.0 | 0.0 | 0.00 | 0.00 | 0.00 | 77 | 1006.6 |
| 20260509052000 | 52 | 246 | 0.0 | 0.0 | 0.00 | 0.00 | 0.00 | 77 | 1006.5 |
| 20260509050959 | 52 | 246 | 0.0 | 0.0 | 0.00 | 0.00 | 0.00 | 77 | 1006.5 |
| 20260509050458 | 52 | 246 | 0.0 | 0.0 | 0.00 | 0.00 | 0.00 | 76 | 1006.5 |
| 20260509050005 | 53 | 246 | 0.0 | 0.0 | 0.00 | 0.00 | 0.00 | 76 | 1006.4 |
| 20260509045500 | 53 | 246 | 0.0 | 0.0 | 0.00 | 0.00 | 0.00 | 76 | 1006.4 |
| 20260509043459 | 53 | 246 | 0.0 | 0.0 | 0.00 | 0.00 | 0.00 | 75 | 1006.3 |
| 20260509042959 | 54 | 246 | 0.0 | 0.0 | 0.00 | 0.00 | 0.00 | 75 | 1006.3 |
| 20260509042502 | 54 | 246 | 0.0 | 0.0 | 0.00 | 0.00 | 0.00 | 75 | 1006.2 |
| 20260509042000 | 54 | 246 | 0.0 | 0.0 | 0.00 | 0.00 | 0.00 | 75 | 1006.2 |
| 20260509041002 | 55 | 246 | 0.0 | 0.0 | 0.00 | 0.00 | 0.00 | 73 | 1006.1 |
| 20260509040002 | 56 | 246 | 0.0 | 0.0 | 0.00 | 0.00 | 0.00 | 72 | 1005.9 |
| 20260509035458 | 56 | 246 | 0.0 | 0.0 | 0.00 | 0.00 | 0.00 | 71 | 1005.9 |
| 20260509034959 | 56 | 246 | 0.0 | 0.0 | 0.00 | 0.00 | 0.00 | 70 | 1005.8 |
| 20260509034459 | 57 | 246 | 0.0 | 0.0 | 0.00 | 0.00 | 0.00 | 70 | 1005.7 |
| 20260509033959 | 57 | 246 | 0.0 | 0.0 | 0.00 | 0.00 | 0.00 | 70 | 1005.7 |
| 20260509031959 | 58 | 246 | 0.0 | 0.0 | 0.00 | 0.00 | 0.00 | 67 | 1005.4 |
| 20260509031505 | 59 | 246 | 0.0 | 0.0 | 0.00 | 0.00 | 0.00 | 67 | 1005.5 |
| 20260509030502 | 59 | 246 | 0.0 | 0.0 | 0.00 | 0.00 | 0.00 | 66 | 1005.4 |
| 20260509030006 | 59 | 246 | 0.0 | 0.0 | 0.00 | 0.00 | 0.00 | 65 | 1005.3 |
| 20260509025508 | 60 | 246 | 0.0 | 0.0 | 0.00 | 0.00 | 0.00 | 65 | 1005.3 |
| 20260509025007 | 60 | 246 | 0.0 | 2.0 | 0.00 | 0.00 | 0.00 | 64 | 1005.2 |
| 20260509024459 | 60 | 246 | 0.0 | 2.0 | 0.00 | 0.00 | 0.00 | 64 | 1005.2 |
| 20260509024000 | 60 | 246 | 0.0 | 2.0 | 0.00 | 0.00 | 0.00 | 63 | 1005.1 |
| 20260509022959 | 61 | 246 | 0.0 | 2.0 | 0.00 | 0.00 | 0.00 | 62 | 1005.1 |
| 20260509022459 | 61 | 246 | 0.0 | 4.0 | 0.00 | 0.00 | 0.00 | 61 | 1005.1 |
| 20260509021959 | 61 | 246 | 0.0 | 4.0 | 0.00 | 0.00 | 0.00 | 60 | 1005.2 |
| 20260509021500 | 61 | 247 | 0.0 | 1.0 | 0.00 | 0.00 | 0.00 | 61 | 1005.2 |
| 20260509020959 | 0 | 0.0 | 0.0 | 0.00 | 0.00 | 0.00 | 1005.2 | ||
| 20260509020500 | 0 | 0.0 | 0.0 | 0.00 | 0.00 | 0.00 | 1005.2 | ||
| 20260509015959 | 0 | 0.0 | 0.0 | 0.00 | 0.00 | 0.00 | 1005.2 | ||
| 20260509015000 | 0 | 0.0 | 0.0 | 0.00 | 0.00 | 0.00 | 1005.2 | ||
| 20260509014458 | 0 | 0.0 | 0.0 | 0.00 | 0.00 | 0.00 | 1005.2 | ||
| 20260509013458 | 0 | 0.0 | 0.0 | 0.00 | 0.00 | 0.00 | 1005.2 | ||
| 20260509013001 | 0 | 0.0 | 0.0 | 0.00 | 0.00 | 0.00 | 1005.2 | ||
| 20260509011006 | 0 | 0.0 | 0.0 | 0.00 | 0.00 | 0.00 | 1005.2 | ||
| 20260509010509 | 0 | 0.0 | 0.0 | 0.00 | 0.00 | 0.00 | 1005.3 | ||
| 20260509010005 | 0 | 0.0 | 0.0 | 0.00 | 0.00 | 0.00 | 1005.3 | ||
| 20260509005458 | 0 | 0.0 | 0.0 | 0.00 | 0.00 | 0.00 | 1005.3 | ||
| 20260509004958 | 62 | 292 | 0.0 | 6.0 | 0.00 | 0.00 | 0.00 | 55 | 1005.3 |
| 20260509004458 | 62 | 292 | 0.0 | 6.0 | 0.00 | 0.00 | 0.00 | 55 | 1005.3 |
| 20260509003959 | 62 | 292 | 0.0 | 6.0 | 0.00 | 0.00 | 0.00 | 55 | 1005.2 |
| 20260509003000 | 63 | 250 | 1.0 | 655.0 | 5.68 | 0.68 | 0.00 | 53 | |
| 20260509002459 | 63 | 253 | 0.0 | 5.0 | 0.00 | 0.00 | 0.00 | 53 | 1005.1 |
| 20260509001959 | 63 | 263 | 1.0 | 7.0 | 0.00 | 0.00 | 0.00 | 52 | 1005.2 |
| 20260509001506 | 63 | 236 | 2.0 | 8.0 | 0.00 | 0.00 | 0.00 | 52 | 1005.3 |
| 20260509000458 | 63 | 261 | 1.0 | 6.0 | 0.00 | 0.00 | 0.00 | 52 | 1005.0 |
| 20260508235958 | 63 | 233 | 2.0 | 6.0 | 0.00 | 0.00 | 0.00 | 52 | 1005.0 |
| 20260508235458 | 64 | 249 | 2.0 | 7.0 | 0.00 | 0.00 | 0.00 | 52 | 1005.0 |
| 20260508234502 | 64 | 263 | 2.0 | 6.0 | 0.00 | 0.00 | 0.00 | 53 | 1004.9 |
| 20260508233958 | 64 | 263 | 0.0 | 5.0 | 0.00 | 0.00 | 0.00 | 53 | 1005.0 |
| 20260508233502 | 63 | 260 | 2.0 | 7.0 | 0.00 | 0.00 | 0.00 | 53 | 1005.0 |
| 20260508232504 | 64 | 146 | 0.0 | 6.0 | 0.00 | 0.00 | 0.00 | 53 | 1005.0 |
| 20260508231959 | 64 | 256 | 2.0 | 6.0 | 0.00 | 0.00 | 0.00 | 52 | 1005.0 |
| 20260508231459 | 64 | 227 | 4.0 | 8.0 | 0.00 | 0.00 | 0.00 | 52 | 1005.1 |
| 20260508231001 | 64 | 221 | 4.0 | 8.0 | 0.00 | 0.00 | 0.00 | 53 | 1004.9 |
| 20260508230500 | 64 | 244 | 3.0 | 8.0 | 0.00 | 0.00 | 0.00 | 52 | 1005.0 |
| 20260508225000 | 64 | 281 | 8.0 | 11.0 | 0.00 | 0.00 | 0.00 | 55 | 1005.0 |
| 20260508224459 | 64 | 232 | 3.0 | 11.0 | 0.00 | 0.00 | 0.00 | 54 | 1005.1 |
| 20260508223958 | 64 | 247 | 2.0 | 7.0 | 0.00 | 0.00 | 0.00 | 54 | 1005.0 |
| 20260508223500 | 64 | 234 | 3.0 | 10.0 | 0.00 | 0.00 | 0.00 | 56 | 1004.9 |
| 20260508222958 | 64 | 219 | 5.0 | 10.0 | 0.00 | 0.00 | 0.00 | 53 | 1004.9 |
| 20260508222459 | 64 | 242 | 1.0 | 8.0 | 0.00 | 0.00 | 0.00 | 53 | 1005.0 |
| 20260508221959 | 64 | 251 | 2.0 | 6.0 | 0.00 | 0.00 | 0.00 | 53 | 1004.9 |
| 20260508221458 | 64 | 196 | 3.0 | 7.0 | 0.00 | 0.00 | 0.00 | 55 | 1004.9 |
| 20260508220958 | 64 | 249 | 4.0 | 7.0 | 0.00 | 0.00 | 0.00 | 54 | 1004.8 |
| 20260508220459 | 64 | 263 | 2.0 | 7.0 | 0.00 | 0.00 | 0.00 | 53 | 1004.8 |
| 20260508215959 | 64 | 297 | 0.0 | 8.0 | 0.00 | 0.00 | 0.00 | 54 | 1004.8 |
| 20260508213959 | 64 | 226 | 3.0 | 6.0 | 0.00 | 0.00 | 0.00 | 55 | 1004.8 |
| 20260508213503 | 63 | 249 | 5.0 | 6.0 | 0.00 | 0.00 | 0.00 | 53 | 1004.8 |
| 20260508212959 | 64 | 256 | 3.0 | 8.0 | 0.00 | 0.00 | 0.00 | 55 | 1004.8 |
| 20260508212458 | 63 | 245 | 4.0 | 8.0 | 0.00 | 0.00 | 0.00 | 54 | 1004.9 |
| 20260508212000 | 63 | 236 | 3.0 | 5.0 | 0.00 | 0.00 | 0.00 | 56 | 1004.9 |
| 20260508211000 | 62 | 223 | 5.0 | 12.0 | 0.00 | 0.00 | 0.00 | 55 | 1004.9 |
| 20260508210458 | 62 | 248 | 0.0 | 5.0 | 0.00 | 0.00 | 0.00 | 59 | 1004.9 |
| 20260508205958 | 62 | 215 | 1.0 | 7.0 | 0.00 | 0.00 | 0.00 | 56 | 1005.0 |
| 20260508205459 | 62 | 273 | 0.0 | 7.0 | 0.00 | 0.00 | 0.00 | 57 | 1005.0 |
| 20260508205000 | 62 | 246 | 0.0 | 4.0 | 0.00 | 0.00 | 0.00 | 58 | 1005.0 |
| 20260508203959 | 62 | 246 | 1.0 | 6.0 | 0.00 | 0.00 | 0.00 | 60 | 1005.1 |